Beja current weather conditions

sailwx.info

Wind from 310 at 8 knots

Air temperature 24.0° C
Dewpoint 14.0° C

Last reported at 2014-Aug-28 21:00 UTC.
Time now 2014-Aug-28 23:18 UTC

Location: N 38°05' W 007°56'.
View on Google Maps.

See reports from other nearby stations

  
Tides and Currents Weather Stations Pressure Air Temp Water Temp Dewpoint Dewpoint Depression Visibility Wind Speed Wind Dir Waves Ship Positions
date/time (UTC)wind fromknots sea level pressurealtimeterstation pressurevisibilityair tempwater tempwave heightnotes
2014-Aug-28 22:00 320 8 23.0
2014-Aug-28 21:00 310 8 24.0
2014-Aug-28 20:00 320 9 26.0
2014-Aug-28 19:00 310 13 28.0
2014-Aug-28 18:00 300 15 30.0
2014-Aug-28 17:00 310 15 31.0
2014-Aug-28 16:00 320 12 32.0
2014-Aug-28 15:00 310 9 33.0
2014-Aug-28 14:00 300 9 32.0
2014-Aug-28 13:00 340 8 31.0
2014-Aug-28 12:00 320 8 5.430.0
2014-Aug-28 11:00 330 6 5.427.0
2014-Aug-28 10:00 340 5 25.0
2014-Aug-28 09:00 040 4 5.422.0
2014-Aug-28 08:20 020 5 5.422.0
2014-Aug-28 08:00 030 7 5.420.0
2014-Aug-28 07:00 350 7 5.419.0
2014-Aug-28 06:00 340 6 5.418.0
2014-Aug-28 05:20 340 7 5.417.0
2014-Aug-28 05:00 320 7 17.0
2014-Aug-28 04:00 290 6 16.0
2014-Aug-28 03:00 300 5 17.0
2014-Aug-28 02:00 290 3 28.0
2014-Aug-28 01:00 310 8 19.0
2014-Aug-28 00:00 300 7 21.0
2014-Aug-27 23:00 320 11 22.0
2014-Aug-27 22:00 310 9 24.0
2014-Aug-27 21:00 300 8 26.0
2014-Aug-27 20:00 300 10 29.0
2014-Aug-27 19:00 310 9 31.0
2014-Aug-27 18:00 320 11 33.0
2014-Aug-27 17:00 310 11 34.0
2014-Aug-27 16:00 300 11 34.0
2014-Aug-27 15:00 350 12 34.0
2014-Aug-27 14:00 310 12 33.0
2014-Aug-27 13:00 350 9 32.0
2014-Aug-27 12:00 320 9 30.0
2014-Aug-27 11:00 320 8 28.0
2014-Aug-27 10:00 320 8 26.0
2014-Aug-27 09:00 310 5 23.0
2014-Aug-27 08:00 310 5 21.0
2014-Aug-27 07:00 340 4 19.0
2014-Aug-27 06:00 330 5 18.0
2014-Aug-27 05:00 310 7 18.0
2014-Aug-27 04:00 330 6 19.0
2014-Aug-27 03:00 300 4 19.0
2014-Aug-27 02:00 200 6 19.0
2014-Aug-27 01:00 310 6 21.0
2014-Aug-27 00:00 310 8 22.0
2014-Aug-26 23:00 320 8 23.0